Location: Newark
(25.6108°S, 54.5803°W)
Time: 14:11:30
(UTC+00:00)

Vanguard 3 - Visible Passes

Search period start: 31 October 2020 00:00
Search period end: 10 November 2020 00:00
Orbit: 507 x 3263 km, 33.4° (Epoch: 30 October)

Date Brightness Start Highest point End Pass type
(mag) Time Alt. Az. Time Alt. Az. Time Alt. Az.
31 Oct 9.0 00:40:20 10° WSW 00:41:21 18° SW 00:41:21 18° SW visible
31 Oct 7.7 23:26:57 10° SW 23:30:15 29° S 23:31:28 24° SE visible
01 Nov 8.0 22:12:49 10° WSW 22:16:16 26° S 22:19:28 10° ESE visible
02 Nov 8.5 00:24:29 10° WSW 00:26:07 25° SW 00:26:07 25° SW visible
02 Nov 7.5 23:11:01 10° SW 23:14:24 31° SSE 23:16:14 21° ESE visible
04 Nov 7.7 00:08:36 10° WSW 00:10:55 37° SW 00:10:55 37° SW visible
04 Nov 7.3 22:54:57 10° SW 22:58:33 36° SSE 23:01:02 17° ESE visible
05 Nov 6.7 23:52:39 10° WSW 23:55:43 59° WSW 23:55:43 59° WSW visible
06 Nov 7.0 22:38:47 10° WSW 22:42:42 43° SSE 22:45:51 13° E visible
07 Nov 6.1 23:36:41 10° WSW 23:40:27 72° NNW 23:40:34 72° N visible
08 Nov 6.7 22:22:31 10° WSW 22:26:51 54° SSE 22:30:27 10° E visible
09 Nov 9.2 00:35:07 10° W 00:35:17 11° W 00:35:17 11° W visible
09 Nov 6.5 23:20:41 10° WSW 23:24:31 52° NNW 23:25:28 39° NNE visible
